Regional Weather Roundup
Issued by NWS Binghamton, NY

Home | Current Version | Previous Version | Text Only | Print | Product List | Glossary On
Versions: 1 2 3 4 5 6 7 8 9 10 11 12 13 14 15 16 17 18 19 20 21 22 23 24 25 26 27 28 29 30 31 32 33 34 35 36 37 38 39 40 41 42 43 44 45 46 47 48 49 50
755
ASUS41 KBGM 310210
RWRBGM

REGIONAL WEATHER ROUNDUP
NATIONAL WEATHER SERVICE BINGHAMTON NY
1000 PM EDT MON MAY 30 2016

Note: "fair" indicates few or no clouds below 12,000 feet with no
significant weather and/or obstructions to visibility.

* = Station(s) that does not report precipitation, such as rain,
snow, etc, also no thunder or fog.

NYZ009-015>018-022>025-036-037-044>046-055>057-062-310300
...Central New York...

CITY           SKY/WX    TMP DP  RH WIND       PRES   REMARKS
Binghamton     CLOUDY    66  62  87 SW6       29.99R
Cortland       FAIR      64  59  82 CALM      29.98R
Dansville      CLEAR     68  55  63 CALM      29.99R
Elmira         CLEAR     70  54  56 SW3       29.96R
Ithaca         NOT AVBL
Hamilton       CLEAR     70  57  64 CALM      29.97R
Hornell        CLEAR     63  54  72 CALM      30.04R
Monticello     CLOUDY    64  63  94 NW3       30.00R
Norwich        CLEAR     66  61  82 CALM      29.98R
Oneonta        PTCLDY    66  63  88 CALM      30.00R
Penn Yan       CLEAR     67  57  70 SW3       29.98R
Rome           PTCLDY    71  58  63 W5        29.94R
Sidney         CLEAR     66  66 100 CALM      29.98R FOG
Syracuse       PTCLDY    70  57  63 W9        29.93R
$$

PAZ038>040-043-044-047-048-072-310300
...Northeast Pennsylvania...

CITY           SKY/WX    TMP DP  RH WIND       PRES   REMARKS
Hazleton       CLOUDY    63  63 100 CALM      30.03R
Scranton       CLOUDY    65  64  97 CALM      29.98R FOG
$$
&&
KEY
WCI = Wind Chill Index
VSB = Visibility
HX  = Heat Index
$$




USA.gov is the U.S. government's official web portal to all federal, state and local government web resources and services.